#timestamp,LO_Frequency,Hit 
1501776015.3,286047166.3,N
1501776035.1,286047165.2,N
1501776055.8,286047165.0,N
1501776075.7,286047167.3,N
1501776095.5,286047166.1,N
1501776115.3,286047163.3,N
1501776135.2,286047164.1,N
1501776155.9,286047162.1,N
1501776175.7,286047159.8,N
1501776195.6,286047159.0,N
1501776215.4,286047159.8,N
1501776235.2,286047161.8,N
1501776255.0,286047160.3,N
1501776255.9,286047160.3,N
1501776275.8,286047157.9,N
1501776295.6,286047151.9,N
1501776315.4,286047150.8,N
1501776335.3,286047149.1,N
1501776355.1,286047149.5,N
1501776375.8,286047144.0,N
1501776395.7,286047145.1,N
1501776415.5,286047143.3,N
1501776435.3,286047139.1,N
1501776455.2,286047137.6,N
1501776475.9,286047136.5,N
1501776495.7,286047136.9,N
1501776515.5,286047136.2,N
1501776535.4,286047138.3,N
1501776555.2,286047137.5,N
1501776575.0,286047137.4,N
1501776575.9,286047137.4,N
1501776595.8,286047137.5,N
1501776615.6,286047140.4,N
1501776635.4,286047138.4,N
1501776655.3,286047138.6,N
1501776675.1,286047137.5,N
1501776676.0,286047137.5,N
1501776695.8,286047139.3,N
1501776715.7,286047147.2,N
1501776735.5,286047142.5,N
1501776755.3,286047139.3,N
1501776775.2,286047139.4,N
1501776795.9,286047138.0,N
1501776815.7,286047139.6,N
1501776835.6,286047140.7,N
1501776855.4,286047146.4,N
1501776875.2,286047147.5,N
1501776895.0,286047150.7,N
1501776895.9,286047150.7,N
1501776915.8,286047153.8,N
1501776935.6,286047155.1,N
1501776955.4,286047157.4,N
1501776975.3,286047159.5,N
1501776995.1,286047156.7,N
1501777015.8,286047156.9,N
1501777035.7,286047157.3,N
1501777055.5,286047155.6,N
1501777075.3,286047152.2,N
1501777095.2,286047150.6,N
1501777115.9,286047151.7,N
1501777135.7,286047161.2,N
1501777155.5,286047167.6,N
1501777175.4,286047166.6,N
1501777195.2,286047163.1,N
1501777215.0,286047165.4,N
1501777215.9,286047165.4,N
1501777235.8,286047167.4,N
1501777255.6,286047166.1,N
1501777275.4,286047171.7,N
1501777295.3,286047169.5,N
1501777315.1,286047170.3,N
1501777316.0,286047170.3,N
1501777335.8,286047165.9,N
1501777355.7,286047163.5,N
1501777375.5,286047165.9,N
1501777395.3,286047165.5,N
1501777415.1,286047161.9,N
1501777435.9,286047165.0,N
1501777455.7,286047176.9,N
1501777475.5,286047175.3,N
1501777495.4,286047175.1,N
1501777515.2,286047177.3,N
1501777535.0,286047178.5,N
1501777535.9,286047178.5,N
1501777555.8,286047169.3,N
1501777575.6,286047169.6,N
1501777595.4,286047169.8,N
1501777615.3,286047170.7,N
1501777635.1,286047167.9,N
1501777636.0,286047167.9,N
1501777655.8,286047170.4,N
1501777675.6,286047168.1,N
1501777695.5,286047170.7,N
1501777715.3,286047168.2,N
1501777735.1,286047173.2,N
1501777755.9,286047178.7,N
1501777775.7,286047180.0,Y
1501777795.5,286047101.4,N
1501777815.4,286047100.2,N
1501777835.2,286047098.0,N
1501777855.0,286047101.4,N
1501777855.9,286047101.4,N
1501777875.8,286047101.5,N
1501777895.6,286047101.6,N
1501777915.4,286047106.9,N
1501777935.3,286047110.8,N
1501777955.1,286047109.0,N
1501777956.0,286047109.0,N
1501777975.8,286047107.8,N
1501777995.7,286047104.7,N
1501778015.5,286047101.8,N
1501778035.3,286047102.2,N
1501778055.1,286047107.9,N
1501778075.9,286047106.4,N
1501778095.7,286047108.1,N
1501778115.5,286047111.3,N
1501778135.4,286047116.0,N
1501778155.2,286047115.3,N
1501778175.0,286047120.6,N
1501778175.9,286047120.6,N
1501778195.8,286047123.4,N
1501778215.6,286047122.2,N
1501778235.4,286047120.1,N
1501778255.3,286047119.9,N
1501778275.1,286047116.5,N
1501778276.0,286047116.5,N
1501778295.8,286047114.0,N
1501778315.7,286047111.6,N
1501778335.5,286047108.0,N
1501778355.3,286047101.7,N
1501778375.1,286047101.9,N
1501778395.9,286047100.8,N
1501778415.7,286047099.7,N
1501778435.5,286047103.0,N
1501778455.4,286047106.5,N
1501778475.2,286047114.3,N
1501778495.0,286047114.6,N
1501778495.9,286047114.6,N
1501778515.8,286047114.0,N
1501778535.6,286047113.9,N
1501778555.4,286047115.9,N
1501778575.3,286047116.6,N
1501778595.1,286047120.3,N
1501778596.0,286047120.3,N
1501778615.8,286047127.4,N
1501778635.7,286047124.4,N
1501778655.5,286047120.8,N
1501778675.3,286047117.8,N
1501778695.1,286047117.3,N
1501778715.9,286047124.9,N
1501778735.7,286047125.6,N
1501778755.5,286047131.1,N
1501778775.4,286047138.7,N
1501778795.2,286047139.0,N
1501778815.0,286047142.0,N
1501778815.9,286047142.0,N
1501778835.8,286047139.5,N
1501778855.6,286047138.4,N
1501778875.4,286047140.4,N
1501778895.3,286047141.8,N
1501778915.1,286047146.0,N
1501778916.0,286047146.0,N
1501778935.8,286047142.7,N
1501778955.6,286047143.1,N
1501778975.5,286047146.6,N
1501778995.3,286047144.5,N
1501779015.1,286047143.5,N
1501779035.9,286047140.1,N
1501779055.7,286047135.8,N
1501779075.5,286047137.9,N
1501779095.4,286047142.2,N
1501779115.2,286047139.1,N
1501779135.0,286047138.3,N
1501779135.9,286047138.3,N
1501779155.8,286047135.0,N
1501779175.6,286047128.1,N
1501779195.4,286047130.3,N
1501779215.2,286047125.1,N
1501779235.1,286047124.2,N
1501779236.0,286047124.2,N
1501779255.8,286047122.1,N
1501779275.6,286047122.0,N
1501779295.5,286047119.9,N
1501779315.3,286047116.8,N
1501779335.1,286047116.3,N
1501779355.9,286047112.8,N
1501779375.7,286047112.8,N
1501779395.5,286047107.3,N
1501779415.4,286047107.1,N
1501779435.2,286047109.0,N
1501779455.0,286047105.7,N
1501779455.9,286047105.7,N
1501779475.8,286047106.0,N
1501779495.6,286047106.4,N
1501779515.4,286047107.3,N
1501779535.3,286047112.7,N
1501779555.1,286047118.6,N
1501779556.0,286047118.6,N
1501779575.8,286047122.3,N
1501779595.6,286047121.2,N
